www.pogodaiklimat.ru

Погода и климат >> Архив погоды >> Россия >> Якутия >> Сухана


ПОГОДА в Сухане

  • Прогноз погоды в Сухане
  • Монитор погоды в Сухане
  • Климат города

АРХИВ ПОГОДЫ в Сухане

Время (UTC), дата Ветер
(напр.,м/с)
 
Видим.   Явления Облачность Т
(С)
Тd
(С)
f
(%)
Тe
(С)
Тes
(С)
Комфортность P
(гПа)
Po
(гПа)
Тmin
(С)
Tmax
(С)
R
(мм)
R24
(мм)
S
(см)
06 12.12 Ю 1 50 км {снег, метель} 10/0
[Ac As]
-25.2 -28.4 75 -29 -29 1013.4 1002.7
09 12.12 Ю 1 20 км слабый снег 10/0
[Ac As Cs]
-26.5 -29.7 74 -30 -30 1014.5 1003.8
12 12.12 штиль 0 50 км {снег} 10/0
[Cs]
-28.0 -30.4 80 -28 -28 1016.3 1005.4 -24.3 1
15 12.12 З 1 50 км 10/0
[Cs]
-31.6 -34.5 75 -36 -36 опасность
обморожения
1017.8 1006.9
18 12.12 СВ 1 50 км 10/0
[Cs]
-32.5 -35.5 74 -37 -37 опасность
обморожения
1018.3 1007.1
21 12.12 штиль 0 50 км 10/0
[Ac As Cs]
-30.9 -33.8 76 -31 -31 опасность
обморожения
1018.7 1006.9
00 13.12 штиль 0 50 км 10/0
[Ac As Cs]
-31.7 -34.7 75 -32 -32 опасность
обморожения
1018.0 1007.1 -32.9 16
03 13.12 Ю 1 50 км 10/0
[Ac As]
-32.2 -35.2 75 -37 -37 опасность
обморожения
1014.3 1003.4
06 13.12 штиль 0 50 км 9/0
[Ac As]
-30.6 -33.6 75 -31 -31 опасность
обморожения
1012.2 1001.3
09 13.12 С 1 50 км 10/0
[Ac As]
-26.8 -29.3 79 -31 -31 опасность
обморожения
1008.3 997.7
12 13.12 Ю 2 20 км слабый снег 10/0
[As op]
-23.2 -26.4 75 -30 -30 1005.1 994.5 -23.2 0.0
15 13.12 Ю 4 20 км слабый снег {метель} 10/0
[As op]
-24.5 -27.7 75 -34 -34 опасность
обморожения
1002.9 992.3
18 13.12 Ю 4 20 км слабый снег {метель} 10/0
[As op]
-23.8 -27.0 75 -34 -34 опасность
обморожения
1001.5 990.9
21 13.12 Ю 4 10 км слабый снег {метель} 10/0
[As op]
-23.0 -26.3 74 -33 -33 опасность
обморожения
999.9 989.4
00 14.12 Ю 4 20 км позёмок {снег, метель} 10/0
[Ac As Cs]
-21.9 -25.1 75 -31 -31 опасность
обморожения
999.2 988.9 -24.5 1 16
03 14.12 Ю 3 50 км позёмок {метель} 10/0
[Ac As]
-22.1 -25.4 74 -30 -30 999.2 988.9
06 14.12 штиль 0 50 км {метель} 10/0
[Ac As]
-25.3 -27.7 80 -25 -25 999.8 989.3
09 14.12 штиль 0 20 км слабый снег 10/0
[Ac As]
-25.0 -27.4 80 -25 -25 999.8 989.3
12 14.12 штиль 0 20 км слабый снег 10/0
[As op]
-22.7 -25.2 80 -23 -23 999.6 989.1 -21.9 0.8
15 14.12 штиль 0 20 км слабый снег 10/0
[As op]
-23.8 -26.3 80 -24 -24 999.4 988.9
18 14.12 З 1 50 км {снег} 8/0
[Ac As]
-25.7 -28.1 80 -29 -29 999.5 989.0
21 14.12 штиль 0 50 км 4/0
[Ac As]
-32.7 -35.7 74 -33 -33 опасность
обморожения
1000.2 989.3
00 15.12 штиль 0 50 км ясно -35.9 -38.6 76 -36 -36 опасность
обморожения
1000.6 989.7 -35.9 0.3 15
03 15.12 штиль 0 50 км 3/0
[Ac trans]
-38.4 -41.3 74 -38 -38 опасность
обморожения
1000.9 989.7 -38.6
06 15.12 штиль 0 50 км 6/0
[Ac trans Cs]
-39.2 -41.7 77 -39 -39 опасность
обморожения
1001.5 990.2
09 15.12 штиль 0 50 км 4/0
[Cs]
-39.5 -42.2 75 -40 -40 опасность
обморожения
1001.6 990.3
12 15.12 штиль 0 50 км 3/0
[Cs]
-39.8 -42.7 74 -40 -40 опасность
обморожения
1001.5 990.2 -35.9
15 15.12 штиль 0 50 км 3/0
[Cs]
-38.6 -41.3 75 -39 -39 опасность
обморожения
1000.9 989.7
18 15.12 штиль 0 50 км 6/0
[Cs]
-37.5 -40.5 73 -38 -38 опасность
обморожения
1000.3 989.1
21 15.12 штиль 0 20 км слабый снег 10/0
[Cs]
-36.5 -39.4 74 -37 -37 опасность
обморожения
999.8 988.9
00 16.12 штиль 0 50 км {снег} 10/0
[Cs]
-38.9 -41.7 75 -39 -39 опасность
обморожения
999.9 988.7 -39.8 0.2 16
03 16.12 штиль 0 50 км 3/0
[Ci fib]
-41.0 -43.8 74 -41 -41 опасность
обморожения
1000.3 989.1 -41.0
06 16.12 штиль 0 50 км 4/0
[Ac lent Cs]
-41.7 -44.3 76 -42 -42 опасность
обморожения
1001.0 989.8
09 16.12 штиль 0 50 км 3/0
[Cs]
-43.1 -45.5 77 -43 -43 опасность
обморожения
1002.6 991.1
12 16.12 штиль 0 50 км ясно -42.2 -44.8 76 -42 -42 опасность
обморожения
1003.2 991.9 -38.9
15 16.12 штиль 0 50 км ясно -44.2 -46.9 74 -44 -44 опасность
обморожения
1003.7 992.2
18 16.12 штиль 0 50 км ясно -45.8 -48.5 74 -46 -46 опасность
обморожения
1004.1 992.6
21 16.12 штиль 0 50 км ясно -46.2 -48.5 77 -46 -46 опасность
обморожения
1005.1 993.3
00 17.12 штиль 0 50 км ясно -46.0 -48.5 76 -46 -46 опасность
обморожения
1005.2 993.7 -46.2 16
03 17.12 штиль 0 50 км 6/0
[Cs]
-46.2 -48.5 77 -46 -46 опасность
обморожения
1005.2 993.7
06 17.12 штиль 0 50 км 4/0
[Cs]
-45.8 -49.2 68 -46 -46 опасность
обморожения
1005.7 994.2
09 17.12 штиль 0 50 км 4/0
[Cs]
-46.4 -48.5 79 -46 -46 опасность
обморожения
1006.9 995.4
12 17.12 штиль 0 50 км 5/0
[Cs]
-46.7 -49.4 74 -47 -47 опасность
обморожения
1007.8 996.3 -45.3
15 17.12 штиль 0 50 км ясно -46.8 -49.4 75 -47 -47 опасность
обморожения
1008.2 996.7
18 17.12 штиль 0 50 км ясно -48.2 -51.1 72 -48 -48 опасность
обморожения
1009.1 997.3
21 17.12 штиль 0 50 км ясно -48.8 -52.2 67 -49 -49 опасность
обморожения
1009.2 997.4
00 18.12 штиль 0 50 км ясно -49.9 -53.5 66 -50 -50 опасность
обморожения
1009.7 997.9 -49.9 16
03 18.12 штиль 0 50 км ясно -50.4 -53.5 69 -50 -50 опасность
обморожения
1009.1 997.3 -50.7
06 18.12 штиль 0 50 км ясно -50.4 -53.5 69 -50 -50 опасность
обморожения
1008.4 996.6
09 18.12 штиль 0 50 км ясно -51.0 -53.5 74 -51 -51 опасность
обморожения
1008.3 996.5
12 18.12 штиль 0 50 км ясно -51.0 -53.5 74 -51 -51 опасность
обморожения
1007.5 995.7 -49.9
15 18.12 штиль 0 50 км ясно -50.7 -53.5 72 -51 -51 опасность
обморожения
1006.5 994.7
18 18.12 штиль 0 50 км ясно -50.4 -53.5 69 -50 -50 опасность
обморожения
1006.0 994.2
21 18.12 штиль 0 50 км ясно -47.9 -51.1 69 -48 -48 опасность
обморожения
1005.7 993.9
00 19.12 штиль 0 50 км ясно -41.6 -44.3 75 -42 -42 опасность
обморожения
1004.3 993.0 -51.4 16

 

Местоположение метеостанции Сухана (Якутия, Россия): широта 68.62 долгота 118.30 высота над уровнем моря 77 м.

В архиве по умолчанию представлена погода в Сухане за последнюю неделю. Архивные данные за месяц целиком и за предыдущие месяцы, начиная с января 2011 года, Вы можете получить, выбрав интересующий диапазон дат из раскрывающегося списка и нажав кнопку "Ввод!".


*Определитесь, кто Вы:
робот инопланетянин человек

Внимание! Время в таблицах - всемирное. Для получения местного времени необходимо прибавить поправку, которая в Сухане равна 9 ч.

Смотрите также архив погоды в соседних городах и на ближайших метеорологических станциях:

Погода в Джарджане (Якутия, Россия) (231 км)
Погода в Оленеке (Якутия, Россия) (240 км)
Погода в Джалинде (Якутия, Россия) (241 км)
Погода в Эйке (Якутия, Россия) (291 км)
Погода в Жиганске (Якутия, Россия) (294 км)
Погода в Шелагонцах (Якутия, Россия) (316 км)
Погода в Полярном (Якутия, Россия) (326 км)
Погода в Саскылахе (Якутия, Россия) (406 км)
Погода в Тюмяти (Якутия, Россия) (415 км)
Погода в Айхале (Якутия, Россия) (419 км)

Пояснения к столбцам:

Ветер - указаны скорость ветра в м/с - средняя за 10 мин, порывы в срок и между сроками (в фигурных скобках) и направление, откуда дует ветер: С - северный, СВ - северо-восточный, В - восточный, ЮВ - юго-восточный, Ю - южный, ЮЗ - юго-западный, З - западный, СЗ - северо-западный.
Видимость - горизонтальная дальность видимости в метрах или километрах. При видимости от 1 до 10 км при отсутствии осадков обычно наблюдается дымка, при ухудшении видимости до 1 км и менее - туман. В сухую погоду видимость может ухудшаться дымом, пылью или мглою.
Явления - указаны атмосферные явления, наблюдавшиеся в срок или в последний час перед сроком; фигурными скобками обозначены явления, наблюдавшиеся между сроками (за 1-3 часа до срока); квадратными скобками обозначены град или гололедные отложения с указанием их диаметра в мм.
Облачность - указаны через наклонную черту общая и нижняя облачность в баллах и высота нижней границы облаков в метрах; квадратными скобками обозначены формы облаков: Ci - перистые, Cs - перисто-слоистые, Cc - перисто-кучевые, Ac - высококучевые, As - высокослоистые, Sc - слоисто-кучевые, Ns - слоисто-дождевые, Cu - кучевые, Cb - кучево-дождевые. Подробнее классификацию облаков см. в Атласе облаков (PDF).
T - Температура воздуха - температура, измеренная на высоте 2 м над землей.
Td - Температура точки росы - температура, при понижении до которой содержащийся в воздухе водяной пар достигнет насыщения.
f - Относительная влажность воздуха - влажноcть воздуха, измеренная на высоте 2 м над землей.
Te - Эффективная температура - температура, которую ощущает одетый по сезону человек в тени. Характеристика душности погоды. При расчете учитывается влияние влажности воздуха и скорости ветра на теплоощущения человека.
Tes - Эффективная температура на солнце - температура, которую ощущает человек, с поправкой на солнечный нагрев. Характеристика знойности погоды. Зависит от высоты солнца над горизонтом, облачности и скорости ветра. Ночью, в пасмурную погоду, а также при ветре 12 м/с и более поправка равна нулю.
P - Атмосферное давление - приведенное к уровню моря атмосферное давление.
Po - Атмосферное давление - измеренное на уровне метеостанции атмосферное давление.
Tmin - Минимальная температура - минимум температуры воздуха на высоте 2 м над землей.
Tmax - Максимальная температура - максимум температуры воздуха на высоте 2 м над землей.
R - Количество осадков - Количество выпавших осадков за период времени, мм. При наведении курсора мыши на число - период времени, за который выпало указанное количество осадков.
R24 - Количество осадков - Количество выпавших осадков за 24 часа, мм.
S - Снежный покров - Высота снежного покрова, см. При наведении курсора мыши на число - состояние снежного покрова и степень покрытия местности в баллах.